TimeHST,TemperatureF,Dew PointF,Humidity,Sea Level PressureIn,VisibilityMPH,Wind Direction,Wind SpeedMPH,Gust SpeedMPH,PrecipitationIn,Events,Conditions,WindDirDegrees,DateUTC
12:57 AM,73.4,66.2,78,29.94,10.0,Calm,Calm,-,N/A,,Mostly Cloudy,0,2012-12-07 10:57:00
1:57 AM,73.4,66.2,78,29.92,10.0,Calm,Calm,-,N/A,,Mostly Cloudy,0,2012-12-07 11:57:00
2:57 AM,73.4,66.9,80,29.92,10.0,Calm,Calm,-,N/A,,Mostly Cloudy,0,2012-12-07 12:57:00
3:57 AM,73.4,66.2,78,29.92,10.0,Calm,Calm,-,N/A,,Mostly Cloudy,0,2012-12-07 13:57:00
4:57 AM,73.4,67.5,82,29.92,10.0,Calm,Calm,-,N/A,,Mostly Cloudy,0,2012-12-07 14:57:00
5:57 AM,73.4,68.4,84,29.94,10.0,Calm,Calm,-,N/A,,Mostly Cloudy,0,2012-12-07 15:57:00
6:57 AM,73.4,71.1,92,29.95,10.0,Calm,Calm,-,N/A,,Mostly Cloudy,0,2012-12-07 16:57:00
7:57 AM,73.4,72.0,95,29.98,10.0,Calm,Calm,-,N/A,,Mostly Cloudy,0,2012-12-07 17:57:00
8:57 AM,75.2,70.0,84,30.01,10.0,Calm,Calm,-,N/A,,Scattered Clouds,0,2012-12-07 18:57:00
9:57 AM,75.2,68.0,78,30.01,10.0,NNE,3.5,-,N/A,,Scattered Clouds,30,2012-12-07 19:57:00
10:57 AM,78.8,66.9,67,30.00,10.0,NE,5.8,-,N/A,,Partly Cloudy,40,2012-12-07 20:57:00
11:57 AM,80.6,64.0,57,29.97,10.0,NNE,6.9,-,N/A,,Partly Cloudy,20,2012-12-07 21:57:00
12:57 PM,82.4,66.0,57,29.94,10.0,ENE,6.9,-,N/A,,Scattered Clouds,70,2012-12-07 22:57:00
1:57 PM,82.4,66.9,59,29.91,10.0,ENE,5.8,-,N/A,,Mostly Cloudy,60,2012-12-07 23:57:00
2:57 PM,82.4,68.0,62,29.89,10.0,NE,4.6,-,N/A,,Mostly Cloudy,50,2012-12-08 00:57:00
3:57 PM,82.4,66.0,57,29.87,10.0,ESE,6.9,-,N/A,,Mostly Cloudy,120,2012-12-08 01:57:00
4:57 PM,75.2,66.0,73,29.87,10.0,Variable,4.6,-,N/A,,Scattered Clouds,0,2012-12-08 02:57:00
5:57 PM,75.2,66.9,75,29.88,10.0,ESE,5.8,-,N/A,,Scattered Clouds,110,2012-12-08 03:57:00
6:57 PM,75.2,70.0,84,29.89,10.0,ESE,5.8,-,N/A,,Scattered Clouds,120,2012-12-08 04:57:00
7:57 PM,75.2,69.1,81,29.92,10.0,ESE,5.8,-,N/A,,Scattered Clouds,110,2012-12-08 05:57:00
8:57 PM,75.2,70.0,84,29.94,10.0,Calm,Calm,-,N/A,,Scattered Clouds,0,2012-12-08 06:57:00
9:57 PM,-9999,-9999,N/A,29.95,10.0,Calm,Calm,-,N/A,,Clear,0,2012-12-08 07:57:00
10:57 PM,-9999,-9999,N/A,29.95,10.0,East,3.5,-,N/A,,Scattered Clouds,90,2012-12-08 08:57:00
11:04 PM,-9999,-9999,N/A,29.96,6.2,East,3.5,-,N/A,,Mostly Cloudy,100,2012-12-08 09:04:00
11:28 PM,-9999,-9999,N/A,29.96,6.2,East,3.5,-,N/A,,Scattered Clouds,90,2012-12-08 09:28:00
11:57 PM,-9999,-9999,N/A,29.95,10.0,East,4.6,-,N/A,,Scattered Clouds,100,2012-12-08 09:57:00